Regional Weather Roundup
Issued by NWS

Home | Current Version | Previous Version | Graphics & Text | Print | Product List | Glossary On
Versions: 1 2 3 4 5 6 7 8 9 10 11 12 13 14 15 16 17 18 19 20 21 22 23 24 25 26 27 28 29 30 31 32 33 34 35 36 37 38 39 40 41 42 43 44 45 46 47 48 49 50
000
ASUS45 KPSR 270210
RWRAZ

ARIZONA REGIONAL HOURLY WEATHER ROUNDUP
NATIONAL WEATHER SERVICE PHOENIX AZ
700 PM MST FRI DEC 26 2014

NOTE: FAIR INDICATES FEW OR NO CLOUDS BELOW 12,000 FEET WITH NO
SIGNIFICANT WEATHER AND/OR OBSTRUCTIONS TO VISIBILITY.

AZZ001>003-036-270300-
NORTHWEST ARIZONA

CITY           SKY/WX    TMP DP  RH WIND       PRES   REMARKS
BULLHEAD CITY  CLEAR     50  10  20 NE8       30.15R
KINGMAN        CLEAR     33  12  41 N8        30.10R WCI  26
$$

AZZ004>008-015-016-018-270300-
NORTH CENTRAL ARIZONA

CITY           SKY/WX    TMP DP  RH WIND       PRES   REMARKS
GRAND CANYON   CLEAR     18  12  77 CALM      30.01R
PRESCOTT       PTCLDY    29  11  47 NW6       30.02R WCI  23
FLAGSTAFF      PTCLDY    21   9  59 VRB3      29.98R
PAYSON         PTCLDY    30  16  55 NW3       30.03R
PAGE           MOCLDY    35   8  32 W8G16     30.02R WCI  29
$$

AZZ009>014-017-270300-
NORTHEAST ARIZONA

CITY           SKY/WX    TMP DP  RH WIND       PRES   REMARKS
WINSLOW        CLOUDY    35  14  42 NW3       30.02R
SAINT JOHNS    CLOUDY    30  19  63 N6        29.99R WCI  24
WINDOW ROCK    PTCLDY    18  11  74 CALM      29.98R
SHOW LOW       CLOUDY    25   7  46 SW5       30.01R WCI  19
$$

AZZ023-270300-
GREATER PHOENIX AREA

CITY           SKY/WX    TMP DP  RH WIND       PRES   REMARKS
PHOENIX        CLEAR     50  21  32 CALM      30.05R
BUCKEYE          N/A     45  19  36 W3        30.08R
GLENDALE       CLEAR     48  23  37 CALM      30.07R
LUKE AFB       CLEAR     46  24  41 W6        30.06R
DEER VALLEY    CLEAR     47  19  33 CALM      30.05R
SCOTTSDALE     CLEAR     47  21  35 CALM      30.07R
MESA-FALCON    CLEAR     46  16  29 CALM      30.06R
MESA-GATEWAY   CLEAR     45  21  39 N3        30.09R
CHANDLER       CLEAR     48  19  32 VRB6      30.07R
$$

AZZ027-028-270300-
SOUTHWEST MARICOPA COUNTY AND PINAL COUNTY

CITY           SKY/WX    TMP DP  RH WIND       PRES   REMARKS
CASA GRANDE    CLEAR     45  18  33 CALM      30.07R
GILA BEND      FAIR      47  19  33 W5        30.08R
$$

AZZ503-504-507>509-270300-
SOUTHEAST ARIZONA

CITY           SKY/WX    TMP DP  RH WIND       PRES   REMARKS
TUCSON         CLEAR     45  19  35 NW9       30.05R
DAVIS-MONTHAN  CLEAR     43  19  38 NW5       30.03R
RYAN FIELD       N/A     45 -29   4 NW6       30.06R
NOGALES        CLEAR     36  14  40 E3        30.02R
SIERRA VISTA   CLEAR     35  15  44 W10       30.01R WCI  27
DOUGLAS        CLEAR     36  22  56 N10       30.01R WCI  28
SAFFORD        CLEAR     41  14  33 NW9       30.01R
$$

AZZ020-021-025-026-031-270300-
SOUTHWEST ARIZONA

CITY           SKY/WX    TMP DP  RH WIND       PRES   REMARKS
YUMA           CLEAR    N/A N/A N/A N6        30.11R
$$

CAZ031-033-041-043-047-048-061-270300-
SOUTHERN CALIFORNIA

CITY           SKY/WX    TMP DP  RH WIND       PRES   REMARKS
DOWNTOWN L.A.  CLEAR     55  24  30 CALM      30.09R
L.A. AIRPORT   CLEAR     57  30  35 SW8       30.10R
SAN DIEGO      CLEAR     58  31  35 N5        30.10R
BURBANK        CLEAR     54  24  31 CALM      30.10R
ONTARIO        CLEAR     53  10  18 NE8       30.11R
RIVERSIDE      CLEAR     54  10  17 N8G21     30.11R
PALM SPRINGS   CLEAR     56  10  16 NE3       30.15R
EL CENTRO NAS  CLEAR     51  15  23 CALM      30.12R
IMPERIAL       CLEAR     50  22  33 CALM      30.11R
BLYTHE         CLEAR     50  16  25 N8        30.12R
NEEDLES        CLEAR     50  11  20 N8        30.14R
$$

NVZ020-UTZ003-270300-
SOUTHERN NEVADA-UTAH

CITY           SKY/WX    TMP DP  RH WIND       PRES   REMARKS
LAS VEGAS      MOCLDY    47   9  21 N10       30.12R
SALT LAKE CITY MOCLDY    23  15  71 E3        30.15R
$$

NMZ009-TXZ055-270300-
NEW MEXICO-WEST TEXAS

CITY           SKY/WX    TMP DP  RH WIND       PRES   REMARKS
ALBUQUERQUE    PTCLDY    31  11  43 W6        30.01R WCI  25
EL PASO        LGT RAIN  37  34  89 S12       29.99R WCI  29
$$


........................KEY........................
SKY/WX - SKY CONDITION/WEATHER
TMP    - TEMPERATURE IN FAHRENHEIT
DP     - DEW POINT IN FAHRENHEIT
RH     - RELATIVE HUMIDITY IN PERCENT
WIND   - DIRECTION AND SPEED IN MILES PER HOUR (MPH)
VRB    - VARIABLE WIND DIRECTION
PRES   - MEAN SEA LEVEL PRESSURE IN INCHES OF MERCURY
         F - FALLING PRESSURE   R - RISING PRESSURE
         S - STEADY PRESSURE
VSB    - VISIBILITY IN MILES
HX     - HEAT INDEX IN FAHRENHEIT
WCI    - WIND CHILL INDEX IN FAHRENHEIT
TC     - TEMPERATURE IN CELSIUS WHICH IS ALSO KNOWN AS
         TEMPERATURE IN CENTIGRADE
AFB    - AIR FORCE BASE
         LUKE AFB IS LUKE AIR FORCE BASE
         DAVIS-MONTHAN IS DAVIS-MONTHAN AIR FORCE BASE
NAS    - NAVAL AIR STATION
         EL CENTRO NAS IS EL CENTRO NAVAL AIR STATION
N/A    - NOT AVAILABLE


USA.gov is the U.S. government's official web portal to all federal, state and local government web resources and services.